Starlink 5747

operational
NORAD ID: 55574 Int'l Des: 2023-020 Owner: SPXS Country: US Constellation: starlink
LEOCIRCULAR

Starlink 5747について

説明を読み込み中...

リアルタイム位置

3D地球を読み込み中...

次回通過

高度履歴

Altitude vs Time

uPlot chart will show altitude changes over time

軌道要素

1 55574U 23020F 26035.69057105 .00001038 00000-0 91890-4 0 9995
2 55574 43.0014 184.0945 0001126 271.4946 88.5767 15.02547410163958
Epoch: Feb 4, 2026 • Age: 9 hours

現在のステータス

高度 569.8 km
速度 7.58 km/s
衛星直下点 -38.59°S, 99.45°W
打ち上げ日 Feb 12, 2023
運用期間 2.9 years
タイプ internet

技術仕様

分類 Payload
質量 305.00 kg
乾燥質量 290.00 kg
総質量 305.00 kg
長さ 0.20 m
直径 2.80 m
スパン 9.00 m
形状 Box + pan
製造者 SPXS
バスタイプ Starlink
フェーズステータス In Orbit
所有者/国 SPXS/US

大規模コンステレーション

Loading constellations...